| time (UTC) | temp F | wind direction | speed MPH | gust MPH | rain 1hr in | rain 24hr in | rain mn in | humidity % | barometer mb |
| 20260508095656 | 63 | 0 | 0.0 | 17.0 | 0.00 | 0.00 | 0.00 | 44 | 1019.2 |
| 20260508094006 | 61 | 337 | 0.0 | 27.0 | 0.00 | 0.00 | 0.00 | 44 | 1020.0 |
| 20260508092131 | 61 | 45 | 0.0 | 16.0 | 0.00 | 0.00 | 0.00 | 45 | 1019.5 |
| 20260508090411 | 61 | 22 | 0.0 | 19.0 | 0.00 | 0.00 | 0.00 | 47 | 1019.9 |
| 20260508084701 | 59 | 45 | 14.0 | 20.0 | 0.00 | 0.00 | 0.00 | 47 | 1018.9 |
| 20260508082921 | 58 | 337 | 0.0 | 21.0 | 0.00 | 0.00 | 0.00 | 49 | 1019.4 |
| 20260508081236 | 59 | 0 | 0.0 | 5.0 | 0.00 | 0.00 | 0.00 | 50 | 1019.8 |
| 20260508075516 | 57 | 67 | 18.0 | 20.0 | 0.00 | 0.00 | 0.00 | 51 | 1020.0 |
| 20260508073706 | 57 | 0 | 0.0 | 6.0 | 0.00 | 0.00 | 0.00 | 53 | 1019.7 |
| 20260508071916 | 56 | 90 | 0.0 | 19.0 | 0.00 | 0.00 | 0.00 | 53 | 1019.4 |
| 20260508070106 | 56 | 0 | 0.0 | 18.0 | 0.00 | 0.00 | 0.00 | 54 | 1019.6 |
| 20260508062741 | 57 | 0 | 0.0 | 23.0 | 0.00 | 0.00 | 0.00 | 55 | 1018.8 |
| 20260508055053 | 55 | 337 | 0.0 | 13.0 | 0.00 | 0.00 | 0.00 | 58 | 1019.1 |
| 20260508053326 | 54 | 0 | 14.0 | 22.0 | 0.00 | 0.00 | 0.00 | 58 | 1019.0 |
| 20260508051421 | 53 | 337 | 0.0 | 14.0 | 0.00 | 0.00 | 0.00 | 59 | 1018.5 |
| 20260508045631 | 53 | 202 | 0.0 | 18.0 | 0.00 | 0.00 | 0.00 | 59 | 1018.8 |
| 20260508043851 | 51 | 45 | 12.0 | 17.0 | 0.00 | 0.00 | 0.00 | 60 | 1018.4 |
| 20260508042046 | 50 | 45 | 0.0 | 0.0 | 0.00 | 0.00 | 0.00 | 60 | 1018.2 |
| 20260508040251 | 48 | 315 | 0.0 | 0.0 | 0.00 | 0.00 | 0.00 | 61 | 1017.7 |
| 20260508034446 | 46 | 315 | 0.0 | 0.0 | 0.00 | 0.00 | 0.00 | 62 | 1017.6 |
| 20260508032621 | 44 | 337 | 0.0 | 0.0 | 0.00 | 0.00 | 0.00 | 62 | 1017.1 |
| 20260508030716 | 42 | 337 | 0.0 | 0.0 | 0.00 | 0.00 | 0.00 | 63 | 1016.5 |
| 20260508024921 | 40 | 315 | 0.0 | 0.0 | 0.00 | 0.00 | 0.00 | 64 | 1016.5 |
| 20260508023121 | 38 | 315 | 0.0 | 0.0 | 0.00 | 0.00 | 0.00 | 64 | 1017.9 |
| 20260508021316 | 37 | 315 | 0.0 | 0.0 | 0.00 | 0.00 | 0.00 | 64 | 1017.3 |
| 20260508015446 | 39 | 337 | 0.0 | 0.0 | 0.00 | 0.00 | 0.00 | 62 | 1016.5 |
| 20260508013626 | 39 | 337 | 0.0 | 0.0 | 0.00 | 0.00 | 0.00 | 62 | 1015.9 |
| 20260508011736 | 40 | 315 | 0.0 | 3.0 | 0.00 | 0.00 | 0.00 | 61 | 1016.6 |
| 20260508005831 | 40 | 0 | 0.0 | 0.0 | 0.00 | 0.00 | 0.00 | 60 | 1016.2 |
| 20260508004011 | 40 | 0 | 0.0 | 0.0 | 0.00 | 0.00 | 0.00 | 60 | 1015.7 |
| 20260508002059 | 40 | 315 | 0.0 | 0.0 | 0.00 | 0.00 | 0.00 | 59 | 1015.1 |
| 20260508000351 | 40 | 0 | 0.0 | 0.0 | 0.00 | 0.00 | 0.00 | 58 | 1016.5 |
| 20260507234531 | 40 | 315 | 0.0 | 7.0 | 0.00 | 0.00 | 0.00 | 57 | 1014.5 |
| 20260507232701 | 40 | 270 | 0.0 | 0.0 | 0.00 | 0.00 | 0.00 | 57 | 1015.2 |
| 20260507230831 | 41 | 337 | 0.0 | 0.0 | 0.00 | 0.00 | 0.00 | 56 | 1014.0 |
| 20260507224851 | 42 | 337 | 0.0 | 0.0 | 0.00 | 0.00 | 0.00 | 56 | 1014.7 |
| 20260507223101 | 41 | 315 | 0.0 | 0.0 | 0.00 | 0.00 | 0.00 | 57 | 1014.8 |
| 20260507221306 | 41 | 292 | 0.0 | 0.0 | 0.00 | 0.00 | 0.00 | 57 | 1013.8 |
| 20260507215551 | 41 | 337 | 0.0 | 0.0 | 0.00 | 0.00 | 0.00 | 57 | 1014.6 |
| 20260507213726 | 41 | 315 | 0.0 | 0.0 | 0.00 | 0.00 | 0.00 | 57 | 1013.6 |
| 20260507211951 | 42 | 315 | 0.0 | 0.0 | 0.00 | 0.00 | 0.00 | 57 | 1014.0 |
| 20260507210146 | 42 | 337 | 0.0 | 0.0 | 0.00 | 0.00 | 0.00 | 57 | 1014.6 |
| 20260507204401 | 42 | 315 | 0.0 | 0.0 | 0.00 | 0.00 | 0.00 | 57 | 1012.5 |
| 20260507202606 | 42 | 315 | 0.0 | 0.0 | 0.00 | 0.00 | 0.00 | 56 | 1013.1 |
| 20260507200806 | 42 | 315 | 0.0 | 0.0 | 0.00 | 0.00 | 0.00 | 56 | 1013.9 |
| 20260507195021 | 43 | 315 | 0.0 | 0.0 | 0.00 | 0.00 | 0.00 | 55 | 1012.5 |
| 20260507193201 | 44 | 315 | 0.0 | 0.0 | 0.00 | 0.00 | 0.00 | 54 | 1012.1 |
| 20260507185726 | 46 | 292 | 0.0 | 0.0 | 0.00 | 0.00 | 0.00 | 52 | 1012.0 |
| 20260507183916 | 47 | 337 | 0.0 | 0.0 | 0.00 | 0.00 | 0.00 | 51 | 1012.2 |
| 20260507182126 | 48 | 270 | 0.0 | 0.0 | 0.00 | 0.00 | 0.00 | 50 | 1012.3 |
| 20260507180446 | 50 | 247 | 0.0 | 13.0 | 0.00 | 0.00 | 0.00 | 48 | 1011.8 |
| 20260507174741 | 51 | 270 | 12.0 | 12.0 | 0.00 | 0.00 | 0.00 | 46 | 1011.2 |
| 20260507173041 | 53 | 0 | 0.0 | 0.0 | 0.00 | 0.00 | 0.00 | 46 | 1011.8 |
| 20260507171256 | 54 | 0 | 0.0 | 11.0 | 0.00 | 0.00 | 0.00 | 45 | 1011.9 |
| 20260507165433 | 55 | 337 | 0.0 | 13.0 | 0.00 | 0.00 | 0.00 | 45 | 1011.4 |
| 20260507163651 | 56 | 315 | 0.0 | 15.0 | 0.00 | 0.00 | 0.00 | 46 | 1010.9 |
| 20260507161906 | 57 | 315 | 0.0 | 20.0 | 0.00 | 0.00 | 0.00 | 46 | 1010.1 |
| 20260507160116 | 59 | 270 | 0.0 | 8.0 | 0.00 | 0.00 | 0.00 | 46 | 1010.9 |
| 20260507154331 | 61 | 0 | 0.0 | 0.0 | 0.00 | 0.00 | 0.00 | 46 | 1010.8 |
| 20260507152606 | 62 | 315 | 0.0 | 8.0 | 0.00 | 0.00 | 0.00 | 46 | 1009.9 |
| 20260507150841 | 64 | 180 | 0.0 | 18.0 | 0.00 | 0.00 | 0.00 | 47 | 1010.7 |
| 20260507144846 | 62 | 157 | 12.0 | 20.0 | 0.00 | 0.00 | 0.00 | 47 | 1011.1 |
| 20260507142956 | 66 | 270 | 0.0 | 0.0 | 0.00 | 0.00 | 0.00 | 46 | 1010.2 |
| 20260507141201 | 63 | 225 | 10.0 | 16.0 | 0.00 | 0.00 | 0.00 | 47 | 1009.2 |
| 20260507135346 | 64 | 180 | 9.0 | 20.0 | 0.00 | 0.00 | 0.00 | 48 | 1009.7 |
| 20260507133536 | 64 | 225 | 6.0 | 7.0 | 0.00 | 0.00 | 0.00 | 49 | 1010.3 |
| 20260507131621 | 63 | 135 | 0.0 | 15.0 | 0.00 | 0.00 | 0.00 | 50 | 1009.8 |
| 20260507130011 | 62 | 135 | 0.0 | 22.0 | 0.00 | 0.00 | 0.00 | 51 | 1009.9 |
| 20260507124251 | 63 | 112 | 0.0 | 9.0 | 0.00 | 0.00 | 0.00 | 51 | 1010.7 |
| 20260507122421 | 62 | 135 | 16.0 | 17.0 | 0.00 | 0.00 | 0.00 | 52 | 1010.5 |
| 20260507120626 | 61 | 157 | 15.0 | 18.0 | 0.00 | 0.00 | 0.00 | 52 | 1009.9 |
| 20260507114846 | 62 | 112 | 0.0 | 14.0 | 0.00 | 0.00 | 0.00 | 52 | 1009.1 |
| 20260507113041 | 62 | 112 | 0.0 | 15.0 | 0.00 | 0.00 | 0.00 | 52 | 1008.9 |
| 20260507111156 | 61 | 157 | 14.0 | 14.0 | 0.00 | 0.00 | 0.00 | 52 | 1009.8 |
| 20260507105251 | 60 | 202 | 17.0 | 19.0 | 0.00 | 0.00 | 0.00 | 53 | 1009.5 |
| 20260507103449 | 60 | 135 | 0.0 | 21.0 | 0.00 | 0.00 | 0.00 | 54 | 1008.3 |
| 20260507101521 | 59 | 135 | 11.0 | 17.0 | 0.00 | 0.00 | 0.00 | 54 | 1009.8 |